Total_Precipitation_Accumulation
0.80 0.80 0.70 0.67 0.67 0.67 0.65 0.67 0.76 0.85 0.95 1.00 1.05 1.10 1.14 1.24 1.29 1.40 1.53 1.67 1.69 1.69 1.60 1.63 1.73 1.79 1.96 1.99 1.96 1.90 1.88 1.80 1.65 1.56 1.32 1.09 1.08 1.13 1.18 1.09 1.10 1.08 0.93
0.86 0.80 0.71 0.71 0.74 0.79 0.77 0.70 0.71 0.77 0.79 0.90 1.04 1.03 1.04 1.10 1.18 1.28 1.38 1.42 1.51 1.47 1.37 1.37 1.49 1.57 1.71 1.83 1.93 1.85 1.85 1.80 1.77 1.71 1.48 1.26 1.18 1.17 1.18 1.13 1.04 1.03 1.02
0.86 0.84 0.76 0.66 0.69 0.75 0.75 0.68 0.65 0.70 0.74 0.88 1.02 1.14 1.06 0.97 1.05 1.15 1.21 1.23 1.24 1.19 1.16 1.17 1.22 1.29 1.41 1.54 1.66 1.76 1.76 1.71 1.81 1.79 1.58 1.34 1.22 1.18 1.20 1.16 1.08 1.13 1.05
0.91 0.85 0.82 0.76 0.78 0.73 0.64 0.61 0.63 0.63 0.61 0.68 0.82 0.94 0.99 0.95 0.90 0.91 0.96 1.11 1.11 1.02 0.93 0.92 0.95 0.97 1.07 1.22 1.35 1.49 1.63 1.75 1.84 1.86 1.72 1.43 1.24 1.21 1.24 1.28 1.26 1.15 1.15
0.97 0.92 0.85 0.80 0.70 0.63 0.57 0.51 0.52 0.48 0.47 0.54 0.70 0.88 0.94 0.94 0.98 0.97 0.90 0.93 0.98 0.99 0.91 0.83 0.77 0.76 0.85 0.94 1.04 1.28 1.47 1.62 1.76 1.83 1.75 1.58 1.39 1.30 1.25 1.23 1.29 1.37 1.35
0.79 0.80 0.81 0.77 0.62 0.54 0.48 0.41 0.40 0.41 0.42 0.45 0.53 0.69 0.85 0.84 0.99 1.04 0.98 0.90 0.90 0.89 0.88 0.89 0.88 0.83 0.72 0.66 0.70 0.87 1.10 1.30 1.47 1.58 1.62 1.52 1.36 1.30 1.35 1.33 1.29 1.31 1.39
0.61 0.64 0.66 0.61 0.49 0.43 0.35 0.31 0.34 0.36 0.38 0.41 0.47 0.59 0.74 0.89 0.92 0.83 0.92 0.93 0.89 0.89 0.86 0.86 0.90 0.89 0.92 0.81 0.73 0.71 0.75 0.92 1.14 1.32 1.36 1.34 1.40 1.34 1.29 1.23 1.18 1.14 1.14
0.45 0.49 0.47 0.47 0.43 0.35 0.28 0.28 0.30 0.34 0.37 0.39 0.43 0.49 0.57 0.76 0.81 0.72 0.90 0.94 0.94 0.93 0.91 0.93 0.95 0.98 0.96 1.05 1.02 0.92 0.87 0.87 0.96 0.89 0.98 1.25 1.34 1.33 1.32 1.34 1.33 1.22 1.13
0.30 0.36 0.40 0.40 0.37 0.31 0.27 0.33 0.40 0.40 0.39 0.38 0.38 0.41 0.44 0.53 0.62 0.60 0.74 0.88 0.98 0.97 0.86 0.87 0.92 0.95 1.14 1.18 1.09 1.06 0.99 0.95 1.09 1.09 1.10 1.14 1.19 1.17 1.18 1.26 1.31 1.24 1.19
0.19 0.24 0.28 0.31 0.34 0.38 0.46 0.54 0.56 0.52 0.46 0.41 0.39 0.38 0.40 0.42 0.55 0.45 0.57 0.74 0.90 0.99 0.93 0.89 1.05 1.01 1.02 0.97 0.93 1.11 1.09 0.98 0.90 0.87 0.89 0.94 0.95 0.99 1.04 1.06 1.17 1.17 1.09
0.04 0.10 0.18 0.29 0.35 0.44 0.56 0.59 0.58 0.52 0.44 0.40 0.38 0.36 0.36 0.45 0.60 0.54 0.61 0.70 0.82 0.90 0.93 0.95 0.93 1.01 0.84 0.79 0.83 0.98 1.12 1.05 1.00 1.03 0.97 0.92 0.89 0.89 0.84 0.88 0.99 1.06 1.06
0.03 0.07 0.13 0.20 0.29 0.42 0.51 0.51 0.50 0.49 0.46 0.42 0.43 0.40 0.42 0.53 0.60 0.61 0.61 0.65 0.72 0.80 0.82 0.75 0.74 0.81 0.67 0.62 0.61 0.74 0.91 0.92 0.93 1.01 0.98 0.92 0.86 0.83 0.80 0.78 0.83 0.89 0.91
0.01 0.02 0.06 0.11 0.22 0.36 0.39 0.39 0.42 0.45 0.44 0.43 0.41 0.39 0.39 0.46 0.57 0.67 0.57 0.49 0.48 0.56 0.62 0.62 0.55 0.51 0.51 0.47 0.51 0.60 0.66 0.79 0.92 0.96 0.87 0.81 0.81 0.84 0.83 0.79 0.75 0.74 0.75
0.00 0.00 0.01 0.02 0.05 0.10 0.15 0.20 0.26 0.32 0.33 0.32 0.35 0.39 0.42 0.42 0.42 0.48 0.50 0.46 0.41 0.41 0.41 0.35 0.33 0.36 0.43 0.45 0.46 0.48 0.54 0.74 0.91 0.90 0.83 0.77 0.79 0.81 0.86 0.87 0.83 0.77 0.74
0.00 0.00 0.01 0.02 0.03 0.04 0.06 0.09 0.13 0.16 0.19 0.25 0.30 0.34 0.35 0.39 0.38 0.41 0.42 0.43 0.48 0.51 0.52 0.45 0.38 0.37 0.38 0.42 0.45 0.50 0.62 0.72 0.81 0.77 0.76 0.73 0.74 0.80 0.84 0.87 0.91 0.86 0.79
0.00 0.00 0.00 0.01 0.01 0.01 0.02 0.03 0.04 0.06 0.09 0.12 0.15 0.18 0.18 0.24 0.31 0.33 0.36 0.38 0.40 0.47 0.51 0.52 0.52 0.53 0.53 0.52 0.50 0.47 0.48 0.56 0.63 0.69 0.69 0.70 0.69 0.68 0.68 0.72 0.78 0.80 0.78
0.00 0.00 0.00 0.01 0.01 0.02 0.03 0.05 0.04 0.03 0.02 0.03 0.05 0.09 0.11 0.12 0.14 0.21 0.27 0.32 0.34 0.39 0.44 0.46 0.46 0.47 0.47 0.45 0.43 0.40 0.38 0.38 0.45 0.53 0.64 0.69 0.71 0.69 0.67 0.63 0.61 0.62 0.61
0.00 0.00 0.01 0.05 0.07 0.04 0.05 0.08 0.11 0.13 0.09 0.04 0.02 0.04 0.05 0.05 0.05 0.06 0.09 0.15 0.18 0.21 0.28 0.33 0.32 0.32 0.31 0.31 0.29 0.27 0.27 0.28 0.30 0.32 0.41 0.54 0.67 0.76 0.77 0.72 0.66 0.64 0.62
0.00 0.01 0.03 0.07 0.07 0.08 0.11 0.13 0.12 0.12 0.11 0.07 0.04 0.02 0.02 0.03 0.03 0.03 0.04 0.06 0.07 0.08 0.11 0.14 0.15 0.15 0.18 0.18 0.17 0.17 0.18 0.20 0.23 0.24 0.26 0.30 0.40 0.54 0.65 0.70 0.73 0.79 0.76
0.01 0.01 0.01 0.03 0.05 0.07 0.08 0.10 0.09 0.08 0.07 0.06 0.05 0.04 0.04 0.04 0.04 0.03 0.03 0.04 0.04 0.05 0.05 0.07 0.08 0.08 0.10 0.11 0.10 0.10 0.10 0.12 0.15 0.17 0.18 0.20 0.24 0.31 0.41 0.50 0.55 0.60 0.64
0.01 0.01 0.01 0.02 0.03 0.04 0.03 0.04 0.05 0.05 0.04 0.03 0.02 0.02 0.03 0.06 0.07 0.06 0.05 0.05 0.05 0.05 0.05 0.06 0.06 0.07 0.08 0.10 0.15 0.17 0.13 0.10 0.12 0.14 0.16 0.17 0.18 0.21 0.25 0.32 0.38 0.42 0.47
0.01 0.01 0.02 0.03 0.05 0.04 0.03 0.04 0.04 0.05 0.05 0.04 0.04 0.03 0.04 0.06 0.07 0.07 0.06 0.05 0.06 0.05 0.06 0.06 0.07 0.08 0.09 0.10 0.14 0.21 0.23 0.19 0.15 0.14 0.16 0.17 0.19 0.20 0.22 0.25 0.29 0.32 0.34
0.02 0.02 0.03 0.04 0.05 0.04 0.05 0.05 0.06 0.06 0.06 0.05 0.06 0.05 0.06 0.07 0.07 0.07 0.07 0.08 0.09 0.09 0.09 0.08 0.08 0.09 0.11 0.12 0.13 0.15 0.16 0.19 0.21 0.20 0.18 0.19 0.20 0.22 0.24 0.25 0.27 0.31 0.33
0.03 0.04 0.04 0.06 0.06 0.07 0.07 0.07 0.06 0.06 0.05 0.06 0.06 0.06 0.07 0.08 0.07 0.07 0.08 0.09 0.10 0.10 0.11 0.10 0.09 0.09 0.10 0.12 0.13 0.14 0.15 0.17 0.15 0.14 0.15 0.17 0.17 0.18 0.21 0.24 0.26 0.28 0.32
0.04 0.04 0.05 0.06 0.07 0.08 0.09 0.09 0.10 0.08 0.07 0.08 0.07 0.07 0.08 0.09 0.08 0.07 0.07 0.08 0.09 0.09 0.10 0.10 0.09 0.11 0.14 0.15 0.15 0.18 0.25 0.25 0.19 0.16 0.15 0.17 0.18 0.20 0.23 0.28 0.32 0.36 0.38
0.07 0.07 0.07 0.07 0.08 0.08 0.10 0.12 0.12 0.12 0.10 0.09 0.09 0.09 0.09 0.09 0.09 0.09 0.08 0.08 0.10 0.11 0.11 0.13 0.14 0.15 0.17 0.18 0.18 0.20 0.24 0.22 0.21 0.20 0.18 0.17 0.19 0.22 0.28 0.31 0.33 0.38 0.45